Location: Maiden
(35.5760°N, 81.2120°W)
Time: 02:57:46
(UTC-04:00)

Vanguard 2 - Pass Details

Date: 06 August 2020
Orbit: 553 x 2937 km, 32.9° (Epoch: 20 September)

Event Time Altitude Azimuth Distance (km) Brightness Sun altitude
Rises 23:02:12 0° 245° (WSW) 6,668 12.5 -27.3°
Reaches altitude 10° 23:06:58 10° 243° (WSW) 5,479 12.0 -28.0°
Maximum altitude 23:22:22 66° 166° (SSE) 2,157 9.4 -29.9°
Enters shadow 23:26:05 46° 105° (ESE) 2,280 9.5 -30.3°
Drops below altitude 10° 23:31:53 10° 86° (E) 3,545 - -31.0°
Sets 23:34:19 0° 84° (E) 4,261 - -31.3°
